[TLELIST] Archives

 

[list_settings.list_name] Current TLEs

March 26th 2014 PST

HST 1 20580U 90037B 14084.79610093 .00005890 00000-0 39293-3 0 4666 2 20580 028.4693 225.1911 0003503 104.9816 040.8650 15.05006090112148 ISS (ZARYA) 1 25544U 98067A 14085.27971296 .00020544 00000-0 35362-3 0 9516 2 25544 051.6486 150.4846 0003424 355.6037 112.9535 15.51051586878468 CXO 1 25867U 99040B 14085.90874626 .00000311 00000-0 00000+0 0 74 2 25867 076.6958 324.3653 8230405 275.1566 359.9500 00.37805710 11601 ____________________________________________________________________ These 2-Line ...Continue Reading

[list_settings.list_name] Current TLEs

March 25th 2014 PST

HST 1 20580U 90037B 14082.86951245 .00005959 00000-0 39790-3 0 4656 2 20580 028.4690 237.8473 0003467 089.9194 037.0860 15.04986683111850 ISS (ZARYA) 1 25544U 98067A 14084.18185181 .00024868 00000-0 42670-3 0 9451 2 25544 051.6505 155.9288 0003632 348.6265 105.7694 15.51016925878291 CXO 1 25867U 99040B 14085.90874626 .00000311 00000-0 00000+0 0 74 2 25867 076.6958 324.3653 8230405 275.1566 359.9500 00.37805710 11601 ____________________________________________________________________ These 2-Line ...Continue Reading

[list_settings.list_name] Current TLEs

March 24th 2014 PST

HST 1 20580U 90037B 14082.86951245 .00005959 00000-0 39790-3 0 4656 2 20580 028.4690 237.8473 0003467 089.9194 037.0860 15.04986683111850 ISS (ZARYA) 1 25544U 98067A 14083.40568632 .00024943 00000-0 42855-3 0 9393 2 25544 051.6500 159.7780 0003560 345.2153 092.5299 15.50978194878179 CXO 1 25867U 99040B 14085.90874626 .00000311 00000-0 00000+0 0 74 2 25867 076.6958 324.3653 8230405 275.1566 359.9500 00.37805710 11601 ____________________________________________________________________ These 2-Line ...Continue Reading

[list_settings.list_name] Current TLEs

March 23rd 2014 PST

HST 1 20580U 90037B 14081.81012549 .00006039 00000-0 40350-3 0 4648 2 20580 028.4691 244.8062 0003620 078.7512 057.2337 15.04976583111697 ISS (ZARYA) 1 25544U 98067A 14082.49298416 .00025294 00000-0 43513-3 0 9337 2 25544 051.6498 164.3055 0003669 340.6547 037.7105 15.50933508878030 CXO 1 25867U 99040B 14083.26284395 .00000445 00000-0 00000+0 0 66 2 25867 076.6855 324.5063 8235618 275.1542 359.8893 00.37803208 11591 ____________________________________________________________________ These 2-Line ...Continue Reading

[list_settings.list_name] Current TLEs

March 22nd 2014 PST

HST 1 20580U 90037B 14080.73806255 .00005076 00000-0 33737-3 0 4633 2 20580 028.4696 251.8487 0003546 069.2339 006.9562 15.04967210111520 ISS (ZARYA) 1 25544U 98067A 14081.47530476 .00024522 00000-0 42297-3 0 9262 2 25544 051.6495 169.3536 0003511 334.4448 118.1841 15.50878173877871 CXO 1 25867U 99040B 14083.26284395 .00000445 00000-0 00000+0 0 66 2 25867 076.6855 324.5063 8235618 275.1542 359.8893 00.37803208 11591 ____________________________________________________________________ These 2-Line ...Continue Reading

[list_settings.list_name] Current TLEs

March 21st 2014 PST

HST 1 20580U 90037B 14077.75109080 .00004197 00000-0 27714-3 0 4612 2 20580 028.4697 271.4697 0003533 042.8441 018.5049 15.04938338111077 ISS (ZARYA) 1 25544U 98067A 14080.44494288 .00000054 00000-0 87752-5 0 9191 2 25544 051.6487 174.4637 0004155 332.7573 123.4716 15.50802791877712 CXO 1 25867U 99040B 14083.26284395 .00000445 00000-0 00000+0 0 66 2 25867 076.6855 324.5063 8235618 275.1542 359.8893 00.37803208 11591 ____________________________________________________________________ These 2-Line ...Continue Reading

[list_settings.list_name] Current TLEs

March 20th 2014 PST

HST 1 20580U 90037B 14077.75109080 .00004197 00000-0 27714-3 0 4612 2 20580 028.4697 271.4697 0003533 042.8441 018.5049 15.04938338111077 ISS (ZARYA) 1 25544U 98067A 14079.48005350 .00000054 00000-0 87752-5 0 9078 2 25544 051.6476 179.2417 0004337 324.9959 140.7977 15.50746162877565 CXO 1 25867U 99040B 14080.61751496 .00000412 00000-0 00000+0 0 78 2 25867 076.6810 324.6236 8238818 275.1569 359.9093 00.37802876 11581 ____________________________________________________________________ These 2-Line ...Continue Reading

[list_settings.list_name] Current TLEs

March 19th 2014 PST

HST 1 20580U 90037B 14077.75109080 .00004197 00000-0 27714-3 0 4612 2 20580 028.4697 271.4697 0003533 042.8441 018.5049 15.04938338111077 ISS (ZARYA) 1 25544U 98067A 14078.18513273 .00000053 00000-0 87752-5 0 8991 2 25544 051.6496 185.6786 0003785 318.1042 113.7869 15.50692087877365 CXO 1 25867U 99040B 14080.61751496 .00000412 00000-0 00000+0 0 78 2 25867 076.6810 324.6236 8238818 275.1569 359.9093 00.37802876 11581 ____________________________________________________________________ These 2-Line ...Continue Reading

[list_settings.list_name] Current TLEs

March 18th 2014 PST

HST 1 20580U 90037B 14076.04027184 .00003773 00000-0 24807-3 0 4605 2 20580 028.4695 282.7074 0003473 025.9421 108.3135 15.04925377110827 ISS (ZARYA) 1 25544U 98067A 14077.41932594 .00000053 00000-0 87752-5 0 8931 2 25544 051.6471 189.4707 0003601 320.9183 153.0324 15.50640907877241 CXO 1 25867U 99040B 14077.97330360 .00000397 00000-0 00000+0 0 67 2 25867 076.6752 324.7551 8241458 275.1618 000.0660 00.37806056 11573 ____________________________________________________________________ These 2-Line ...Continue Reading

[list_settings.list_name] Current TLEs

March 17th 2014 PST

HST 1 20580U 90037B 14076.04027184 .00003773 00000-0 24807-3 0 4605 2 20580 028.4695 282.7074 0003473 025.9421 108.3135 15.04925377110827 ISS (ZARYA) 1 25544U 98067A 14076.45317676 .00009513 00000-0 17084-3 0 8863 2 25544 051.6472 194.2598 0003107 308.0719 168.9268 15.50600330877098 CXO 1 25867U 99040B 14077.97330360 .00000397 00000-0 00000+0 0 67 2 25867 076.6752 324.7551 8241458 275.1618 000.0660 00.37806056 11573 ____________________________________________________________________ These 2-Line ...Continue Reading
  • This mailing list is a public mailing list - anyone may join or leave, at any time.
  • This mailing list is announce-only.

International Space Station (ISS) / Hubble Space Telescope (HST) / Chandra X-Ray Observatory Orbital Data via EMAIL

Privacy Policy:

Private list